TimeEDT,TemperatureF,Dew PointF,Humidity,Sea Level PressureIn,VisibilityMPH,Wind Direction,Wind SpeedMPH,Gust SpeedMPH,PrecipitationIn,Events,Conditions,WindDirDegrees,DateUTC
12:35 AM,51.8,51.8,100,30.02,0.2,Calm,Calm,-,N/A,Fog,Fog,0,2013-05-09 04:35:00
12:55 AM,50.0,50.0,100,30.02,0.2,Calm,Calm,-,N/A,Fog,Fog,0,2013-05-09 04:55:00
2:15 AM,51.8,51.8,100,30.00,0.2,Calm,Calm,-,N/A,Fog,Fog,0,2013-05-09 06:15:00
2:35 AM,50.0,50.0,100,30.00,0.2,Calm,Calm,-,N/A,Fog,Fog,0,2013-05-09 06:35:00
2:55 AM,50.0,50.0,100,30.00,0.2,Calm,Calm,-,N/A,Fog,Fog,0,2013-05-09 06:55:00
3:15 AM,50.0,50.0,100,30.00,0.5,Calm,Calm,-,N/A,Fog,Fog,0,2013-05-09 07:15:00
3:55 AM,46.4,46.4,100,30.00,0.8,Calm,Calm,-,N/A,,Overcast,0,2013-05-09 07:55:00
4:35 AM,46.4,46.4,100,30.00,0.8,Calm,Calm,-,N/A,,Overcast,0,2013-05-09 08:35:00
5:35 AM,46.4,46.4,100,30.02,1.5,Calm,Calm,-,N/A,,Scattered Clouds,0,2013-05-09 09:35:00
5:55 AM,46.4,46.4,100,30.02,0.8,Calm,Calm,-,N/A,,Overcast,0,2013-05-09 09:55:00
6:15 AM,44.6,44.6,100,30.02,0.5,Calm,Calm,-,N/A,Fog,Fog,0,2013-05-09 10:15:00
6:35 AM,46.4,46.4,100,30.03,0.5,Calm,Calm,-,0.01,Fog,Fog,0,2013-05-09 10:35:00
8:15 AM,55.4,55.4,100,30.07,10.0,Calm,Calm,-,N/A,,Clear,0,2013-05-09 12:15:00
8:55 AM,59.0,59.0,100,30.07,10.0,Calm,Calm,-,N/A,,Clear,0,2013-05-09 12:55:00
10:15 AM,68.0,59.0,73,30.07,10.0,WNW,4.6,-,N/A,,Clear,290,2013-05-09 14:15:00
10:35 AM,68.0,59.0,73,30.08,10.0,West,3.5,-,N/A,,Clear,280,2013-05-09 14:35:00
10:55 AM,69.8,55.4,60,30.08,10.0,West,3.5,-,N/A,,Clear,280,2013-05-09 14:55:00
11:15 AM,69.8,55.4,60,30.07,10.0,SSW,4.6,-,N/A,,Clear,210,2013-05-09 15:15:00
11:35 AM,71.6,53.6,53,30.07,10.0,Calm,Calm,-,N/A,,Scattered Clouds,0,2013-05-09 15:35:00
11:55 AM,71.6,55.4,57,30.07,10.0,West,6.9,-,N/A,,Clear,260,2013-05-09 15:55:00
12:15 PM,73.4,53.6,50,30.06,10.0,West,4.6,-,N/A,,Scattered Clouds,270,2013-05-09 16:15:00
12:35 PM,73.4,55.4,53,30.06,10.0,Calm,Calm,-,N/A,,Scattered Clouds,0,2013-05-09 16:35:00
12:55 PM,75.2,53.6,47,30.06,7.0,North,5.8,-,N/A,,Clear,360,2013-05-09 16:55:00
1:15 PM,73.4,55.4,53,30.07,10.0,Calm,Calm,-,N/A,,Scattered Clouds,0,2013-05-09 17:15:00
1:35 PM,75.2,55.4,50,30.06,10.0,WNW,4.6,-,N/A,,Scattered Clouds,300,2013-05-09 17:35:00
1:55 PM,75.2,53.6,47,30.06,10.0,WNW,5.8,-,N/A,,Scattered Clouds,300,2013-05-09 17:55:00
2:15 PM,77.0,55.4,47,30.06,10.0,NNW,5.8,-,N/A,,Clear,330,2013-05-09 18:15:00
2:35 PM,77.0,55.4,47,30.05,10.0,West,3.5,-,N/A,,Clear,270,2013-05-09 18:35:00
2:55 PM,77.0,55.4,47,30.05,10.0,WNW,4.6,-,N/A,,Clear,300,2013-05-09 18:55:00
3:55 PM,77.0,55.4,47,30.04,10.0,North,3.5,-,N/A,,Scattered Clouds,360,2013-05-09 19:55:00
4:15 PM,77.0,55.4,47,30.03,10.0,Calm,Calm,-,N/A,,Scattered Clouds,0,2013-05-09 20:15:00
4:35 PM,77.0,53.6,44,30.03,10.0,Calm,Calm,-,N/A,,Clear,0,2013-05-09 20:35:00
4:55 PM,77.0,55.4,47,30.03,10.0,Calm,Calm,-,N/A,,Scattered Clouds,0,2013-05-09 20:55:00
5:15 PM,78.8,53.6,42,30.03,10.0,Calm,Calm,-,N/A,,Clear,0,2013-05-09 21:15:00
5:35 PM,78.8,51.8,39,30.02,10.0,SSW,4.6,-,N/A,,Clear,210,2013-05-09 21:35:00
5:55 PM,77.0,51.8,41,30.02,10.0,Calm,Calm,-,N/A,,Scattered Clouds,0,2013-05-09 21:55:00
6:15 PM,77.0,55.4,47,30.02,10.0,South,4.6,-,N/A,,Mostly Cloudy,190,2013-05-09 22:15:00
6:35 PM,73.4,55.4,53,30.02,10.0,Calm,Calm,-,N/A,,Mostly Cloudy,0,2013-05-09 22:35:00
6:55 PM,73.4,57.2,57,30.02,10.0,Calm,Calm,-,N/A,,Scattered Clouds,0,2013-05-09 22:55:00
7:15 PM,73.4,59.0,61,30.02,10.0,Calm,Calm,-,N/A,,Mostly Cloudy,0,2013-05-09 23:15:00
7:35 PM,71.6,60.8,69,30.03,10.0,Calm,Calm,-,N/A,,Mostly Cloudy,0,2013-05-09 23:35:00
7:55 PM,71.6,57.2,60,30.04,10.0,Calm,Calm,-,N/A,,Scattered Clouds,0,2013-05-09 23:55:00
8:15 PM,68.0,60.8,78,30.04,10.0,Calm,Calm,-,N/A,,Clear,0,2013-05-10 00:15:00
8:35 PM,64.4,60.8,88,30.05,10.0,Calm,Calm,-,N/A,,Scattered Clouds,0,2013-05-10 00:35:00
8:55 PM,62.6,59.0,88,30.06,10.0,Calm,Calm,-,N/A,,Scattered Clouds,0,2013-05-10 00:55:00
9:15 PM,62.6,60.8,94,30.07,10.0,Calm,Calm,-,N/A,,Clear,0,2013-05-10 01:15:00
9:35 PM,60.8,59.0,94,30.07,10.0,Calm,Calm,-,N/A,,Clear,0,2013-05-10 01:35:00
9:55 PM,60.8,59.0,94,30.08,10.0,Calm,Calm,-,N/A,,Clear,0,2013-05-10 01:55:00
10:15 PM,59.0,59.0,100,30.08,10.0,Calm,Calm,-,N/A,,Clear,0,2013-05-10 02:15:00
10:35 PM,59.0,59.0,100,30.08,10.0,Calm,Calm,-,N/A,,Clear,0,2013-05-10 02:35:00
10:55 PM,59.0,59.0,100,30.08,10.0,Calm,Calm,-,N/A,,Clear,0,2013-05-10 02:55:00
11:15 PM,57.2,57.2,100,30.07,10.0,Calm,Calm,-,N/A,,Clear,0,2013-05-10 03:15:00
11:35 PM,57.2,57.2,100,30.07,10.0,Calm,Calm,-,N/A,,Clear,0,2013-05-10 03:35:00
11:55 PM,55.4,55.4,100,30.08,10.0,Calm,Calm,-,N/A,,Clear,0,2013-05-10 03:55:00